Location: Unspecified
(47.9410°N, 0.0000°E)
Time: 23:18:19
(UTC+00:00)

ISS - Visible Passes

Search period start: 21 May 2019 00:00
Search period end: 31 May 2019 00:00
Orbit: 407 x 410 km, 51.6° (Epoch: 22 May)

Date Brightness Start Highest point End Pass type
(mag) Time Alt. Az. Time Alt. Az. Time Alt. Az.
21 May -1.6 01:36:20 10° WNW 01:37:06 16° WNW 01:37:06 16° WNW visible
21 May -3.1 21:31:47 10° W 21:35:02 57° NNW 21:38:19 10° ENE visible
21 May -2.6 23:08:47 10° WNW 23:11:58 42° N 23:14:16 17° ENE visible
22 May -2.1 00:45:25 10° WNW 00:46:56 25° WNW 00:46:56 25° WNW visible
22 May -3.6 20:40:49 10° WSW 20:44:07 76° NNW 20:47:26 10° ENE visible
22 May -2.5 22:17:47 10° WNW 22:20:58 41° N 22:24:08 10° ENE visible
22 May -3.2 23:54:32 10° WNW 23:57:18 55° NW 23:57:18 55° NW visible
23 May -2.6 21:26:46 10° W 21:29:58 44° N 21:33:10 10° ENE visible
23 May -3.1 23:03:38 10° WNW 23:06:54 53° NNE 23:07:50 37° ENE visible
24 May -1.1 00:40:17 10° WNW 00:40:33 12° WNW 00:40:33 12° WNW visible
24 May -2.9 20:35:43 10° W 20:38:57 51° NNW 20:42:12 10° ENE visible
24 May -2.7 22:12:42 10° WNW 22:15:53 45° N 22:18:26 15° ENE visible
24 May -2.4 23:49:19 10° WNW 23:51:09 30° WNW 23:51:09 30° WNW visible
25 May -2.5 21:21:42 10° WNW 21:24:52 41° N 21:28:02 10° ENE visible
25 May -3.9 22:58:22 10° WNW 23:01:42 81° NNE 23:01:47 80° NE visible
26 May -2.5 20:30:39 10° WNW 20:33:49 42° N 20:37:00 10° ENE visible
26 May -3.3 22:07:27 10° WNW 22:10:44 60° NNE 22:12:26 25° E visible
26 May -1.6 23:44:10 10° WNW 23:45:09 17° W 23:45:09 17° W visible
27 May -2.9 21:16:29 10° WNW 21:19:42 48° N 21:22:56 10° E visible
27 May -3.3 22:53:06 10° WNW 22:55:50 48° WSW 22:55:50 48° WSW visible
28 May -2.6 20:25:28 10° WNW 20:28:40 43° N 20:31:50 10° ENE visible
28 May -3.9 22:02:07 10° WNW 22:05:26 84° SSW 22:06:32 39° ESE visible
29 May -3.6 21:11:08 10° WNW 21:14:26 69° NNE 21:17:15 13° ESE visible
29 May -2.2 22:47:58 10° W 22:49:58 24° WSW 22:49:58 24° WSW visible
30 May -3.3 21:56:48 10° WNW 21:59:58 43° SSW 22:00:43 36° S visible
